KC8YVF-1 Weather Reports


Display with metric or nautical units.
time (UTC)temp
F
wind
direction
speed
MPH
gust
MPH
rain 1hr
in
rain 24hr
in
rain mn
in
humidity
%
barometer
mb
20180520170859 55 0 0.0 0.0 0.00 0.28 0.30 79 1009.1
20180520170404 54 0 0.0 0.0 0.00 0.28 0.30 79 1009.1
20180520170359 54 0 2.0 5.0 0.00 0.28 0.30 79 1009.1
20180520165901 54 90 0.0 0.0 0.00 0.28 0.30 80 1009.1
20180520165401 54 68 0.0 0.0 0.00 0.30 0.30 80 1009.1
20180520164905 54 23 0.0 0.0 0.00 0.30 0.30 80 1009.2
20180520164901 54 90 0.0 0.0 0.00 0.30 0.30 80 1009.3
20180520164359 54 90 1.0 3.0 0.00 0.30 0.30 80 1009.1
20180520163859 53 23 0.0 0.0 0.00 0.30 0.30 80 1009.4
20180520163404 53 0 0.0 0.0 0.00 0.30 0.30 80 1009.3
20180520163359 53 90 0.0 0.0 0.00 0.30 0.30 80 1009.3
20180520162901 53 23 0.0 0.0 0.00 0.30 0.30 80 1009.1
20180520162401 54 45 0.0 1.0 0.00 0.30 0.30 80 1009.1
20180520161906 54 113 0.0 0.0 0.00 0.30 0.30 80 1008.8
20180520161901 54 90 0.0 0.0 0.00 0.30 0.30 80 1008.8
20180520161401 54 45 0.0 0.0 0.00 0.30 0.30 81 1008.8
20180520160900 54 0 0.0 0.0 0.00 0.30 0.30 80 1008.9
20180520160405 54 113 0.0 0.0 0.00 0.30 0.30 80 1008.8
20180520160400 54 113 0.0 0.0 0.00 0.30 0.30 80 1008.8
20180520155900 54 135 0.0 0.0 0.00 0.30 0.30 80 1008.8
20180520155400 54 113 0.0 0.0 0.00 0.30 0.30 81 1008.8
20180520154905 54 113 0.0 0.0 0.00 0.30 0.30 81 1008.8
20180520154900 54 113 0.0 0.0 0.00 0.30 0.30 81 1008.8
20180520154359 54 0 0.0 0.0 0.00 0.30 0.30 81 1008.8
20180520153859 54 338 0.0 0.0 0.00 0.30 0.30 82 1008.4
20180520153405 54 45 0.0 0.0 0.00 0.30 0.30 82 1008.4
20180520153400 54 0 0.0 0.0 0.00 0.30 0.30 82 1008.3
20180520152859 54 338 0.0 0.0 0.00 0.30 0.30 81 1008.1
20180520151905 54 338 0.0 0.0 0.00 0.30 0.30 82 1008.1
20180520151900 54 338 0.0 0.0 0.00 0.30 0.30 82 1008.1
20180520151400 54 338 0.0 0.0 0.00 0.30 0.30 82 1008.1
20180520150859 53 338 0.0 0.0 0.00 0.30 0.30 81 1008.1
20180520150404 53 45 0.0 0.0 0.00 0.30 0.30 81 1008.1
20180520150400 53 45 0.0 0.0 0.00 0.30 0.30 81 1008.1
20180520145359 53 338 0.0 0.0 0.00 0.30 0.30 82 1008.1
20180520144904 53 338 0.0 0.0 0.00 0.30 0.30 82 1008.1
20180520144859 53 0 0.0 0.0 0.00 0.30 0.30 82 1008.1
20180520144400 53 338 0.0 1.0 0.00 0.30 0.30 82 1008.1
20180520143901 53 338 0.0 0.0 0.00 0.30 0.30 81 1008.1
20180520143405 53 338 2.0 7.0 0.00 0.30 0.30 81 1008.1
20180520143401 53 315 1.0 5.0 0.00 0.30 0.30 81 1008.1
20180520142900 53 338 0.0 0.0 0.00 0.30 0.30 81 1007.9
20180520141905 53 315 2.0 3.0 0.00 0.30 0.30 81 1007.7
20180520141900 53 0 2.0 3.0 0.00 0.30 0.30 81 1007.7
20180520140404 53 338 0.0 0.0 0.00 0.30 0.30 81 1007.4
20180520140400 53 23 0.0 0.0 0.00 0.30 0.30 81 1007.4
20180520135859 53 0 0.0 1.0 0.00 0.30 0.30 81 1007.4
20180520135359 53 0 1.0 0.0 0.00 0.30 0.30 81 1007.4
20180520134905 53 338 0.0 0.0 0.00 0.30 0.30 81 1007.4
20180520134400 53 23 1.0 2.0 0.00 0.30 0.30 81 1007.4
20180520133900 53 338 1.0 2.0 0.00 0.30 0.30 81 1007.4
20180520133405 53 0 0.0 0.0 0.00 0.30 0.30 81 1007.4
20180520133400 53 0 3.0 7.0 0.00 0.30 0.30 81 1007.4
20180520132359 53 45 0.0 0.0 0.00 0.30 0.30 81 1007.4
20180520131904 53 23 0.0 0.0 0.00 0.30 0.30 81 1007.4
20180520131859 53 23 0.0 0.0 0.00 0.30 0.30 81 1007.4
20180520131359 53 0 2.0 3.0 0.00 0.30 0.30 81 1007.1
20180520130859 52 0 2.0 8.0 0.00 0.30 0.30 81 1007.1
20180520130404 52 23 0.0 0.0 0.00 0.30 0.30 81 1007.1
20180520130359 52 270 0.0 0.0 0.00 0.30 0.30 81 1007.1
20180520125901 52 45 0.0 0.0 0.00 0.30 0.30 82 1007.1
20180520125401 52 23 0.0 0.0 0.00 0.30 0.30 82 1007.1
20180520020239 61 0 0.0 0.0 0.00 0.30 0.30 87 998.6
20180520014740 62 315 0.0 0.0 0.00 0.30 0.30 87 998.3
20180520013239 62 315 0.0 0.0 0.00 0.30 0.30 86 998.3
20180520011740 63 338 3.0 8.0 0.00 0.30 0.30 86 997.9
20180520010239 63 338 0.0 3.0 0.00 0.30 0.30 86 997.6
20180520004739 63 315 0.0 0.0 0.00 0.30 0.30 86 997.6
20180520003240 64 338 0.0 0.0 0.00 0.30 0.30 86 997.3
20180520002713 64 315 0.0 0.0 0.00 0.30 0.30 86 997.2
20180520002213 64 293 0.0 0.0 0.00 0.30 0.30 86 997.2
20180520001713 64 338 0.0 0.0 0.00 0.30 0.30 85 997.2
20180520001213 64 338 0.0 0.0 0.00 0.30 0.30 85 997.0
20180520000713 64 338 0.0 0.0 0.00 0.30 0.30 85 996.9
20180520000214 64 338 0.0 0.0 0.00 0.30 0.30 85 996.8
20180519235714 64 338 0.0 0.0 0.00 0.30 0.30 85 996.9
20180519235214 64 315 0.0 2.0 0.00 0.30 0.30 85 996.9
20180519234714 64 293 0.0 0.0 0.00 0.30 0.30 85 996.8
20180519233214 65 293 0.0 0.0 0.00 0.30 0.30 86 996.6
20180519232214 65 293 0.0 0.0 0.00 0.30 0.30 86 996.6
20180519231727 65 270 0.0 0.0 0.00 0.30 0.30 86 996.6
20180519231413 65 315 0.0 0.0 0.00 0.30 0.30 86 996.6
20180519225913 65 315 0.0 0.0 0.00 0.30 0.30 86 996.4
20180519224414 65 338 0.0 0.0 0.00 0.30 0.30 87 996.2
20180519222913 64 315 0.0 0.0 0.00 0.30 0.30 86 996.6
20180519221413 64 315 0.0 3.0 0.00 0.30 0.30 86 996.6
20180519215912 64 0 0.0 0.0 0.02 0.30 0.30 86 996.5
20180519214414 65 315 1.0 7.0 0.02 0.30 0.30 86 996.2
20180519212912 66 0 5.0 9.0 0.02 0.30 0.30 85 996.2
20180519211414 66 315 0.0 0.0 0.02 0.30 0.30 85 996.2
20180519205912 67 293 1.0 2.0 0.00 0.28 0.28 84 996.0
20180519204413 68 270 0.0 0.0 0.00 0.28 0.28 83 996.2
20180519202914 68 293 0.0 0.0 0.00 0.28 0.28 83 995.9
20180519201414 69 293 0.0 0.0 0.00 0.28 0.28 82 995.9
20180519195913 69 248 0.0 0.0 0.00 0.28 0.28 82 995.5
20180519194414 70 248 0.0 0.0 0.00 0.28 0.28 82 995.5
20180519192914 70 248 0.0 0.0 0.00 0.28 0.28 82 995.5
20180519191413 70 225 0.0 0.0 0.00 0.28 0.28 83 995.5
20180519185914 71 248 0.0 0.0 0.00 0.28 0.28 84 995.5
20180519184413 70 180 0.0 0.0 0.00 0.28 0.28 86 995.5
20180519182914 68 248 0.0 0.0 0.00 0.28 0.28 86 995.9
20180519181413 68 270 0.0 0.0 0.00 0.28 0.28 87 996.1
20180519175914 67 293 0.0 0.0 0.00 0.28 0.28 88 996.2
20180519174414 66 203 0.0 0.0 0.00 0.28 0.28 87 996.4
20180519172914 66 225 0.0 0.0 0.00 0.28 0.28 88 996.6
20180519171413 65 225 0.0 0.0 0.00 0.28 0.28 88 996.6